Independence, IA

4:28 PM CST on December 10, 2019 (GMT -0600)
Independence Municipal

Weather History for KIIB - November, 2019

Change the Weather History Date:

Saturday, November 16, 2019

  Actual Average Record
Temperature  
Mean Temperature 34 °F -  
Max Temperature 41 °F 45 °F 72 °F (1953)
Min Temperature 27 °F 22 °F 3 °F (2014)
Degree Days  
Heating Degree Days 31    
Moisture  
Dew Point 30 °F    
Average Humidity 87    
Maximum Humidity 97    
Minimum Humidity 74    
Precipitation  
Precipitation 0.00 in - - ()
Sea Level Pressure  
Sea Level Pressure 30.21 in    
Wind  
Wind Speed 10 mph ()    
Max Wind Speed 18 mph    
Max Gust Speed 22 mph    
Visibility 4.4 miles    
Events      
Averages and records for this station are not official NWS values.
T = Trace of Precipitation, MM = Missing Value Source: Averaged Metar Reports

Daily Weather History Graph

Daily Weather History Graph

Search for Another Location

Airport or City:

Astronomy

Nov. 16, 2019 Rise Set
Actual Time 6:59 AM CST 4:44 PM CST
Civil Twilight 6:29 AM CST 5:15 PM CST
Nautical Twilight 5:55 AM CST 5:49 PM CST
Astronomical Twilight 5:22 AM CST 6:22 PM CST
Moon 8:15 PM CST (11/16) 10:56 AM CST (11/16)
Length of Visible Light 10h 45m
Length of Day
9h 45m
Waning Gibbous, 82% of the Moon is Illuminated
Nov 16
Waning Gibbous
Nov 19
Last Quarter
Nov 26
New
Dec 4
First Quarter
Dec 11
Full

Hourly Weather History & Observations

Time (CST) Temp. Windchill Dew Point Humidity Pressure Visibility Wind Dir Wind Speed Gust Speed Precip Events Conditions
12:15 AM 28.2 °F 21.0 °F 27.3 °F 96% 30.34 in 4.0 mi ESE 6.9 mph - N/A   Clear
12:35 AM 27.5 °F 20.2 °F 26.6 °F 96% 30.34 in 3.0 mi SE 6.9 mph - N/A   Clear
12:55 AM 27.5 °F 21.1 °F 26.8 °F 97% 30.34 in 3.0 mi SE 5.8 mph - N/A   Clear
1:35 AM 28.9 °F 21.9 °F 27.9 °F 96% 30.34 in 4.0 mi SE 6.9 mph - N/A   Clear
1:55 AM 29.1 °F 22.1 °F 28.0 °F 96% 30.34 in 4.0 mi ESE 6.9 mph - N/A   Clear
2:15 AM 28.9 °F 21.9 °F 27.5 °F 94% 30.34 in 4.0 mi SE 6.9 mph - N/A   Clear
2:55 AM 29.3 °F 22.3 °F 27.9 °F 94% 30.34 in 4.0 mi SE 6.9 mph - N/A   Clear
3:15 AM 29.1 °F 20.6 °F 27.7 °F 94% 30.34 in 4.0 mi SE 9.2 mph - N/A   Clear
3:35 AM 30.0 °F 21.7 °F 28.0 °F 92% 30.33 in 5.0 mi SE 9.2 mph - N/A   Clear
3:55 AM 29.1 °F 21.3 °F 27.3 °F 93% 30.33 in 4.0 mi SE 8.1 mph - N/A   Clear
4:35 AM 28.9 °F 19.2 °F 27.1 °F 93% 30.33 in 4.0 mi SE 11.5 mph - N/A   Clear
4:55 AM 29.1 °F 19.4 °F 27.0 °F 92% 30.32 in 4.0 mi SE 11.5 mph - N/A   Clear
5:35 AM 29.1 °F 19.4 °F 27.1 °F 92% 30.32 in 3.0 mi SE 11.5 mph - N/A   Clear
5:55 AM 29.1 °F 19.4 °F 27.1 °F 92% 30.32 in 3.0 mi SE 11.5 mph - N/A   Clear
6:15 AM 29.1 °F 19.4 °F 27.1 °F 92% 30.31 in 3.0 mi SE 11.5 mph - N/A   Clear
6:35 AM 29.1 °F 18.4 °F 27.3 °F 93% 30.31 in 3.0 mi SE 13.8 mph 17.3 mph N/A   Clear
6:55 AM 29.1 °F 19.4 °F 27.3 °F 93% 30.32 in 2.5 mi SE 11.5 mph - N/A   Clear
7:15 AM 29.3 °F 19.6 °F 27.3 °F 92% 30.32 in 2.5 mi SE 11.5 mph - N/A   Clear
7:35 AM 30.2 °F 20.8 °F 28.0 °F 92% 30.32 in 2.5 mi SE 11.5 mph - N/A   Clear
7:55 AM 30.9 °F 21.2 °F 28.4 °F 90% 30.32 in 3.0 mi SE 12.7 mph - N/A   Clear
8:15 AM 30.7 °F 21.4 °F 28.4 °F 91% 30.32 in 3.0 mi SE 11.5 mph - N/A   Clear
8:35 AM 31.3 °F 22.7 °F 28.9 °F 91% 30.32 in 3.0 mi SSE 10.4 mph - N/A   Clear
8:55 AM 31.5 °F 21.8 °F 28.8 °F 90% 30.32 in 3.0 mi SSE 12.7 mph - N/A   Clear
9:15 AM 32.0 °F 23.0 °F 29.3 °F 90% 30.31 in 3.0 mi SSE 11.5 mph - N/A   Clear
9:35 AM 32.0 °F 23.6 °F 29.8 °F 92% 30.30 in 3.0 mi SE 10.4 mph - N/A   Clear
9:55 AM 32.9 °F 23.2 °F 30.4 °F 90% 30.29 in 3.0 mi SE 13.8 mph - N/A   Clear
10:35 AM 34.5 °F 26.2 °F 31.3 °F 88% 30.29 in 4.0 mi SE 11.5 mph - N/A   Clear
10:55 AM 35.4 °F 27.3 °F 31.8 °F 87% 30.28 in 4.0 mi SSE 11.5 mph - N/A   Clear
11:15 AM 37.2 °F 29.6 °F 32.2 °F 82% 30.27 in 4.0 mi SE 11.5 mph - N/A   Haze
11:35 AM 37.4 °F 30.3 °F 32.2 °F 81% 30.26 in 5.0 mi SE 10.4 mph - N/A   Haze
11:55 AM 37.9 °F 30.5 °F 32.7 °F 81% 30.25 in 5.0 mi SE 11.5 mph - N/A   Haze
12:15 PM 40.6 °F 33.8 °F 33.6 °F 76% 30.23 in 5.0 mi SE 11.5 mph - N/A   Haze
12:35 PM 39.7 °F 32.3 °F 32.9 °F 77% 30.22 in 5.0 mi SE 12.7 mph - N/A   Haze
12:55 PM 39.2 °F 31.2 °F 33.1 °F 79% 30.20 in 5.0 mi SE 13.8 mph - N/A   Haze
1:15 PM 41.7 °F 33.4 °F 34.0 °F 74% 30.18 in 5.0 mi SE 17.3 mph - N/A   Haze
1:35 PM 39.7 °F 30.9 °F 33.6 °F 79% 30.18 in 5.0 mi SE 17.3 mph - N/A   Haze
1:55 PM 40.3 °F 31.3 °F 34.3 °F 79% 30.17 in 5.0 mi SE 18.4 mph - N/A   Haze
2:15 PM 40.3 °F 32.2 °F 34.0 °F 78% 30.17 in 7.0 mi SE 15.0 mph 21.9 mph N/A   Clear
2:35 PM 40.6 °F 32.0 °F 34.0 °F 77% 30.16 in 7.0 mi SE 17.3 mph - N/A   Clear
2:55 PM 41.0 °F 32.5 °F 34.0 °F 76% 30.15 in 7.0 mi SE 17.3 mph - N/A   Clear
3:15 PM 40.5 °F 32.1 °F 33.8 °F 77% 30.15 in 7.0 mi SE 16.1 mph 19.6 mph N/A   Clear
3:35 PM 40.1 °F 32.0 °F 33.8 °F 78% 30.15 in 7.0 mi SE 15.0 mph 19.6 mph N/A   Clear
3:55 PM 38.8 °F 30.4 °F 33.3 °F 80% 30.14 in 5.0 mi SE 15.0 mph - N/A   Haze
4:15 PM 37.8 °F 30.2 °F 32.9 °F 83% 30.14 in 5.0 mi SE 11.5 mph - N/A   Haze
4:35 PM 36.1 °F 27.3 °F 32.2 °F 86% 30.12 in 5.0 mi SE 13.8 mph - N/A   Clear
4:55 PM 35.6 °F 26.6 °F 32.2 °F 87% 30.11 in 4.0 mi ESE 13.8 mph - N/A   Clear
5:15 PM 35.6 °F 26.6 °F 31.8 °F 86% 30.10 in 5.0 mi SE 13.8 mph - N/A   Clear
5:35 PM 35.6 °F 27.5 °F 31.1 °F 84% 30.12 in 5.0 mi SE 11.5 mph - N/A   Haze
5:55 PM 35.1 °F 26.9 °F 31.1 °F 85% 30.12 in 5.0 mi SE 11.5 mph - N/A   Clear
6:15 PM 34.7 °F 26.4 °F 30.9 °F 86% 30.12 in 5.0 mi SE 11.5 mph - N/A   Clear
6:35 PM 34.9 °F 26.2 °F 31.1 °F 86% 30.11 in 5.0 mi SE 12.7 mph - N/A   Clear
6:55 PM 35.2 °F 25.8 °F 31.1 °F 85% 30.10 in 5.0 mi SE 15.0 mph - N/A   Clear
7:15 PM 35.6 °F 25.2 °F 31.1 °F 84% 30.09 in 5.0 mi SE 18.4 mph - N/A   Haze
7:35 PM 34.7 °F 25.1 °F 31.1 °F 87% 30.10 in 5.0 mi SE 15.0 mph - N/A   Clear
7:55 PM 34.2 °F 24.8 °F 30.7 °F 87% 30.09 in 5.0 mi SE 13.8 mph - N/A   Clear
8:15 PM 34.3 °F 24.6 °F 30.6 °F 86% 30.09 in 5.0 mi SE 15.0 mph - N/A   Clear
8:35 PM 34.2 °F 24.8 °F 30.6 °F 87% 30.09 in 5.0 mi SE 13.8 mph - N/A   Clear
8:55 PM 34.3 °F 25.9 °F 30.6 °F 86% 30.10 in 5.0 mi SE 11.5 mph - N/A   Clear
9:15 PM 34.7 °F 25.1 °F 30.6 °F 85% 30.10 in 5.0 mi SSE 15.0 mph - N/A   Haze
9:35 PM 34.5 °F 25.3 °F 30.4 °F 85% 30.11 in 5.0 mi SSE 13.8 mph - N/A   Haze
9:55 PM 34.0 °F 26.6 °F 30.2 °F 86% 30.11 in 5.0 mi SSE 9.2 mph - N/A   Clear
10:15 PM 34.2 °F 27.5 °F 30.2 °F 85% 30.11 in 5.0 mi SSE 8.1 mph - N/A   Clear
10:35 PM 33.4 °F 26.6 °F 30.2 °F 88% 30.10 in 5.0 mi SE 8.1 mph - N/A   Clear
10:55 PM 33.1 °F 25.5 °F 30.2 °F 89% 30.09 in 4.0 mi SE 9.2 mph - N/A   Clear
11:15 PM 32.9 °F 25.9 °F 30.6 °F 91% 30.09 in 4.0 mi SE 8.1 mph - N/A   Clear
11:35 PM 32.2 °F 25.0 °F 30.2 °F 92% 30.09 in 4.0 mi SSE 8.1 mph - N/A   Clear
11:55 PM 32.5 °F 25.5 °F 30.7 °F 93% 30.08 in 4.0 mi SE 8.1 mph - N/A   Clear